Weather History for KDMO - May, 2013

Change the Weather History Date:

Wednesday, May 15, 2013

  Actual Average Record
Temperature  
Mean Temperature 76 °F 65 °F  
Max Temperature 86 °F 75 °F 88 °F (1944)
Min Temperature 65 °F 55 °F 36 °F (1959)
Degree Days  
Heating Degree Days 0 3  
Month to date heating degree days 125 57  
Since 1 July heating degree days 4724 4539  
Cooling Degree Days 11 3  
Month to date cooling degree days 31 31  
Year to date cooling degree days 57 65  
Growing Degree Days 25 (Base 50)    
Moisture  
Dew Point 60 °F    
Average Humidity 63    
Maximum Humidity 79    
Minimum Humidity 46    
Precipitation  
Precipitation 0.00 in 0.14 in 2.57 in (1976)
Month to date precipitation 1.45 2.41  
Year to date precipitation 15.17 12.87  
Sea Level Pressure  
Sea Level Pressure 29.88 in    
Wind  
Wind Speed 12 mph (SW)    
Max Wind Speed 22 mph    
Max Gust Speed 29 mph    
Visibility 10 miles    
Events      
T = Trace of Precipitation, MM = Missing Value Source: NWS Daily Summary

Daily Weather History Graph

Daily Weather History Graph

Search for Another Location

Airport or City:

Trip Planner

Search our weather history database for the weather conditions in past years. The results will help you decide how hot, cold, wet, or windy it might be!

Date:

Astronomy

May. 15, 2013 Rise Set
Actual Time 6:00 AM CDT 8:18 PM CDT
Civil Twilight 5:30 AM CDT 8:48 PM CDT
Nautical Twilight 4:53 AM CDT 9:25 PM CDT
Astronomical Twilight 4:13 AM CDT 10:05 PM CDT
Moon 10:36 AM CDT (5/15) 12:05 AM CDT (5/15)
Length of Visible Light 15h 17m
Length of Day
14h 17m
Waxing Crescent, 27% of the Moon is Illuminated
May 15
Waxing Crescent
May 17
First Quarter
May 24
Full
May 31
Last Quarter
Jun 8
New

Hourly Weather History & Observations

Time (CDT) Temp. Heat Index Dew Point Humidity Pressure Visibility Wind Dir Wind Speed Gust Speed Precip Events Conditions
12:53 AM 73.9 °F - 52.0 °F 46% 29.87 in 10.0 mi SW 15.0 mph 24.2 mph N/A   Clear
1:53 AM 73.9 °F - 53.1 °F 48% 29.87 in 10.0 mi SW 17.3 mph 25.3 mph N/A   Clear
2:53 AM 73.0 °F - 54.0 °F 51% 29.87 in 10.0 mi SW 16.1 mph - N/A   Clear
3:53 AM 71.1 °F - 53.1 °F 53% 29.88 in 10.0 mi SW 13.8 mph 20.7 mph N/A   Clear
4:53 AM 70.0 °F - 53.1 °F 55% 29.88 in 10.0 mi SW 16.1 mph 23.0 mph N/A   Clear
5:53 AM 68.0 °F - 52.0 °F 56% 29.90 in 10.0 mi SSW 12.7 mph - N/A   Clear
6:53 AM 66.9 °F - 53.1 °F 61% 29.91 in 10.0 mi SSW 11.5 mph - N/A   Clear
7:53 AM 70.0 °F - 54.0 °F 57% 29.91 in 10.0 mi SW 17.3 mph 21.9 mph N/A   Clear
8:53 AM 73.0 °F - 57.0 °F 57% 29.91 in 10.0 mi SW 18.4 mph 27.6 mph N/A   Clear
9:53 AM 75.9 °F - 59.0 °F 56% 29.91 in 10.0 mi SW 17.3 mph 25.3 mph N/A   Clear
10:53 AM 78.1 °F - 61.0 °F 56% 29.91 in 10.0 mi SW 15.0 mph 21.9 mph N/A   Clear
11:53 AM 81.0 °F 82.5 °F 64.0 °F 56% 29.90 in 10.0 mi SW 11.5 mph - N/A   Clear
12:53 PM 82.0 °F 83.4 °F 64.0 °F 54% 29.88 in 10.0 mi SW 9.2 mph 19.6 mph N/A   Clear
1:53 PM 84.0 °F 85.4 °F 64.0 °F 51% 29.88 in 10.0 mi SW 10.4 mph - N/A   Clear
2:53 PM 84.9 °F 85.9 °F 63.0 °F 48% 29.86 in 10.0 mi SW 10.4 mph - N/A   Clear
3:53 PM 84.9 °F 85.9 °F 63.0 °F 48% 29.84 in 10.0 mi SW 10.4 mph - N/A   Clear
4:53 PM 84.0 °F 85.4 °F 64.0 °F 51% 29.84 in 10.0 mi West 13.8 mph 19.6 mph N/A   Clear
5:53 PM 82.0 °F 83.8 °F 64.9 °F 56% 29.83 in 10.0 mi SW 10.4 mph - N/A   Clear
6:53 PM 81.0 °F 82.7 °F 64.9 °F 58% 29.83 in 10.0 mi WSW 9.2 mph - N/A   Clear
7:53 PM 77.0 °F - 66.0 °F 69% 29.84 in 10.0 mi WSW 10.4 mph 19.6 mph N/A   Clear
8:53 PM 73.9 °F - 63.0 °F 68% 29.85 in 10.0 mi SW 12.7 mph 19.6 mph N/A   Clear
9:53 PM 72.0 °F - 64.0 °F 76% 29.88 in 10.0 mi SW 8.1 mph - N/A   Clear
10:53 PM 71.1 °F - 63.0 °F 75% 29.89 in 10.0 mi SW 6.9 mph - N/A   Clear
11:53 PM 69.1 °F - 61.0 °F 75% 29.88 in 10.0 mi West 3.5 mph - N/A   Clear